Home   Weather   Finse   Past weeks

Flag for Norway Past Weather in Finse, Norway — Yesterday and Last 2 Weeks

Now
35 °F

Chilly.


Feels Like: 26 °F
Forecast: 26 / 34 °F
Wind: 13 mph from Northwest

Location: Finsevatn

Current Time: Dec 8, 2016 at 11:09:47 pm

Latest Report: Dec 8, 2016 at 10:00 pm


Visibility: N/A

Pressure: 29.83 "Hg (25.62 "Hg at 1221m altitude)

Humidity: 88%

Dew Point: 31 °F

Location of FinseLocation

Past Weather in Finse — Graph

°F

Finse Temperature Yesterday

Maximum temperature yesterday: 39 °F (at 11:00 pm)
Minimum temperature yesterday: 24 °F (at 1:00 am)
Average temperature yesterday: 33 °F

High & Low Weather Summary for the Past Weeks

 TemperatureHumidityPressure
High39 °F (Dec 7, 11:00 pm)94% (Nov 25, 11:00 am)30.63 "Hg (Nov 25, 11:00 am)
Low7 °F (Nov 28, 5:00 am)37% (Nov 28, 11:00 am)29.50 "Hg (Dec 8, 4:00 am)
Average26 °F83%30.05 "Hg
* Reported Nov 23 9:00 pm — Dec 8 9:00 pm, Finse, Weather by CustomWeather, © 2016

Note: Actual official high and low records may vary slightly from our data, if they occured in-between our weather recording intervals... More about our weather records

Advertising

Finse Weather History for the Previous 24 Hours

Scroll right to see more
 ConditionsComfort  
Time TempWeatherWind HumidityBarometerVisibility
9:00 pm
Thu, Dec 8
34 °FChilly.10 mph90%29.84 "HgN/A
8:00 pm35 °FChilly.14 mph91%29.82 "HgN/A
7:00 pm35 °FChilly.14 mph92%29.82 "HgN/A
6:00 pm35 °FChilly.17 mph92%29.79 "HgN/A
5:00 pm35 °FChilly.17 mph91%29.77 "HgN/A
4:00 pm35 °FChilly.18 mph92%29.74 "HgN/A
3:00 pm36 °FChilly.15 mph89%29.75 "HgN/A
2:00 pm35 °FChilly.9 mph91%29.78 "HgN/A
1:00 pm36 °FChilly.18 mph89%29.70 "HgN/A
12:00 pm35 °FChilly.17 mph89%29.68 "HgN/A
11:00 am35 °FChilly.21 mph88%29.67 "HgN/A
10:00 am35 °FChilly.20 mph86%29.63 "HgN/A
9:00 am35 °FChilly.18 mph87%29.60 "HgN/A
8:00 am35 °FChilly.18 mph87%29.56 "HgN/A
7:00 am36 °FChilly.18 mph87%29.50 "HgN/A
6:00 am36 °FChilly.16 mph88%29.50 "HgN/A
5:00 am37 °FChilly.14 mph86%29.50 "HgN/A
4:00 am39 °FChilly.18 mph82%29.50 "HgN/A
1:00 am38 °FChilly.5 mph90%29.60 "HgN/A
12:00 am38 °FChilly.5 mph90%29.61 "HgN/A
11:00 pm
Wed, Dec 7
39 °FChilly.7 mph86%29.62 "HgN/A
Weather by CustomWeather, © 2016

See weather overviewHow to use our weather pages